Regional Weather Roundup
Issued by NWS

Home | Current Version | Previous Version | Text Only | Print | Product List | Glossary Off
Versions: 1 2 3 4 5 6 7 8 9 10 11 12 13 14 15 16 17 18 19 20 21 22 23 24 25 26 27 28 29 30 31 32 33 34 35 36 37 38 39 40 41 42 43 44 45 46 47 48 49 50

000
ASUS45 KCYS 050810
RWRWY

WYOMING REGIONAL WEATHER ROUNDUP
NATIONAL WEATHER SERVICE CHEYENNE WY
200 AM MDT SUN JUL 05 2015

NOTE:  "FAIR" INDICATES FEW OR NO CLOUDS BELOW 12,000 FEET
WITH NO SIGNIFICANT WEATHER AND/OR OBSTRUCTIONS TO VISIBILITY.

WYZ001-050900-
YELLOWSTONE NATIONAL PARK

CITY           SKY/WX    TMP DP  RH WIND       PRES   REMARKS
LK YELLOWSTONE   N/A     51  39  63 NW3       30.15F
W YELLOWSTONE  NOT AVBL

$$
WYZ002>013-054>058-071-098>099-050900-
NORTHERN WYOMING

CITY           SKY/WX    TMP DP  RH WIND       PRES   REMARKS
JACKSON        FAIR      55  45  67 N5        30.05S
CODY           FAIR      70  46  43 SW7       29.89F
GREYBULL       FAIR      76  49  38 NE6       29.78S
WORLAND        FAIR      70  49  47 CALM      29.80F
SHERIDAN       FAIR      69  53  56 NW7       29.79S
BUFFALO        FAIR      71  53  52 CALM      29.89F
GILLETTE       FAIR      72  54  53 S12       29.83F
HULETT         FAIR      72  50  46 CALM      29.85F
NEWCASTLE      FAIR      73  54  49 MISG      29.87S

$$
WYZ014>020-022>026-101>103-050900-
CENTRAL WYOMING

CITY           SKY/WX    TMP DP  RH WIND       PRES   REMARKS
BIG PINEY      FAIR      60  39  45 E6        30.12R
PINEDALE       FAIR      55  43  62 NW5       30.12R
DUBOIS         FAIR      59  34  38 W12       30.09F
LANDER         FAIR      72  43  35 SW15      29.94F
RIVERTON       FAIR      73  43  33 VRB3      29.93R
CASPER         FAIR      76  46  34 S15       29.91F
DOUGLAS        FAIR      63  54  72 E8        29.91F

$$
WYZ021-027>030-104>119-050900-
SOUTHERN WYOMING

CITY           SKY/WX    TMP DP  RH WIND       PRES   REMARKS
EVANSTON       FAIR      65  49  56 S5        30.15F
KEMMERER       FAIR      64  45  48 W7        30.15F
FORT BRIDGER   SUNNY     68  48  49 W14       30.16S
ROCK SPRINGS   FAIR      70  45  40 SW16      30.09F
DIXON          FAIR      58  49  71 CALM      30.14F
RAWLINS        FAIR      62  51  67 CALM      30.10F
SARATOGA       FAIR      64  45  48 SE14G21   30.14S
LARAMIE        MOCLDY    63  47  55 N21       30.15F
CHEYENNE       FAIR      65  52  62 CALM      30.03S
TORRINGTON     FAIR      64  58  80 NE6       29.87S
PINE BLUFFS    FAIR      61  55  82 CALM      29.97F

$$



USA.gov is the U.S. government's official web portal to all federal, state and local government web resources and services.